This demonstration page uses our WeatherBlox Daily Observations layout. Learn more.

Left ArrowRight Arrow

Hourly Observations for February 22, 2019

Temp ( °F °C ) Dew Point ( °F °C ) Humidity (%) Winds ( mph kmh ) Pressure ( in mb ) Visibility ( mi km ) Precip ( " mm )
12:15 am 00:15 Clear 30 -1 30 -1 100 100 N N/A 30.34 1027 5 8 N/A
12:35 am 00:35 Clear 30 -1 30 -1 100 100 E 3 6 30.34 1027 7 11 N/A
12:36 am 00:36 Clear 30 -1 30 -1 100 100 E 3 6 30.34 1027 7 11 N/A
12:55 am 00:55 Clear 30 -1 30 -1 100 100 NE 5 7 30.34 1027 7 11 N/A
1:15 am 01:15 Clear 30 -1 30 -1 100 100 N 5 7 30.35 1028 7 11 N/A
1:16 am 01:16 Clear 30 -1 30 -1 100 100 N 5 7 30.35 1028 7 11 N/A
1:35 am 01:35 Clear 30 -1 30 -1 100 100 N 6 9 30.35 1028 7 11 N/A
1:36 am 01:36 Clear 30 -1 30 -1 100 100 N 6 9 30.35 1028 7 11 N/A
1:55 am 01:55 Clear 30 -1 30 -1 100 100 N 7 11 30.35 1028 7 11 N/A
2:15 am 02:15 Clear 30 -1 30 -1 100 100 NNE 3 6 30.37 1028 7 11 N/A
2:16 am 02:16 Clear 30 -1 30 -1 100 100 N N/A 30.37 1028 7 11 N/A
2:35 am 02:35 Clear 30 -1 30 -1 100 100 NNE 3 6 30.38 1029 7 11 N/A
2:36 am 02:36 Clear 30 -1 30 -1 100 100 N N/A 30.38 1029 7 11 N/A
2:55 am 02:55 Clear 28 -2 28 -2 100 100 NE 3 6 30.38 1029 5 8 N/A
3:15 am 03:15 Clear 28 -2 28 -2 100 100 NNE 5 7 30.37 1029 5 8 N/A
3:16 am 03:16 Clear 28 -2 28 -2 100 100 NNE 6 9 30.37 1029 5 8 N/A
3:35 am 03:35 Clear 28 -2 28 -2 100 100 NNE 6 9 30.38 1029 7 11 N/A
3:36 am 03:36 Clear 28 -2 28 -2 100 100 NNE 5 7 30.38 1029 7 11 N/A
3:55 am 03:55 Clear 28 -2 28 -2 100 100 NNE 7 11 30.38 1029 7 11 N/A
4:15 am 04:15 Clear 28 -2 28 -2 100 100 NNE 6 9 30.39 1029 7 11 N/A
4:16 am 04:16 Clear 28 -2 28 -2 100 100 NNE 6 9 30.38 1029 7 11 N/A
4:35 am 04:35 Clear 28 -2 28 -2 100 100 NNE 7 11 30.38 1029 7 11 N/A
4:36 am 04:36 Clear 28 -2 28 -2 100 100 NNE 8 13 30.38 1029 7 11 N/A
4:55 am 04:55 Clear 28 -2 28 -2 100 100 NNE 8 13 30.37 1029 7 11 N/A
5:16 am 05:16 Clear 28 -2 28 -2 100 100 NNE 7 11 30.38 1029 7 11 N/A
5:35 am 05:35 Clear 28 -2 28 -2 100 100 NNE 7 11 30.41 1030 7 11 N/A
5:36 am 05:36 Clear 28 -2 28 -2 100 100 NNE 7 11 30.41 1030 7 11 N/A
5:55 am 05:55 Clear 28 -2 28 -2 100 100 NNE 8 13 30.41 1030 7 11 N/A
6:15 am 06:15 Clear 28 -2 28 -2 100 100 NNE 7 11 30.42 1030 7 11 N/A
6:16 am 06:16 Clear 28 -2 28 -2 100 100 NNE 7 11 30.41 1030 7 11 N/A
6:35 am 06:35 Clear 28 -2 28 -2 100 100 NNE 7 11 30.42 1030 7 11 N/A
6:36 am 06:36 Clear 28 -2 28 -2 100 100 NNE 7 11 30.42 1030 7 11 N/A
6:55 am 06:55 Clear 28 -2 28 -2 100 100 NNE 7 11 30.43 1031 7 11 N/A
7:16 am 07:16 Clear 28 -2 28 -2 100 100 NNE 6 9 30.42 1030 7 11 N/A
7:36 am 07:36 Sunny 27 -3 27 -3 100 100 NNE 6 9 30.44 1031 5 8 N/A
7:55 am 07:55 Sunny 28 -2 28 -2 100 100 NNE 7 11 30.43 1031 5 8 N/A
8:15 am 08:15 Sunny 28 -2 28 -2 100 100 NE 7 11 30.43 1031 5 8 N/A
8:16 am 08:16 Sunny 28 -2 28 -2 100 100 NE 8 13 30.43 1031 5 8 N/A
8:35 am 08:35 Sunny 28 -2 28 -2 100 100 NE 9 15 30.43 1031 5 8 N/A
8:55 am 08:55 Sunny 30 -1 30 -1 100 100 ENE 7 11 30.44 1031 5 8 N/A
8:56 am 08:56 Sunny 30 -1 30 -1 100 100 ENE 7 11 30.43 1030 5 8 N/A
9:15 am 09:15 Sunny 30 -1 30 -1 100 100 ENE 9 15 30.44 1031 5 8 N/A
9:16 am 09:16 Sunny 30 -1 30 -1 100 100 ENE 9 15 30.44 1031 5 8 N/A
9:35 am 09:35 Sunny 30 -1 30 -1 100 100 ENE 7 11 30.46 1031 5 8 N/A
9:55 am 09:55 Sunny 32 undefined 30 -1 93 93 E 9 15 30.46 1031 5 8 N/A
9:56 am 09:56 Sunny 32 undefined 30 -1 93 93 E 9 15 30.45 1031 5 8 N/A
10:15 am 10:15 Sunny 32 undefined 30 -1 93 93 E 10 17 30.45 1031 7 11 N/A
10:35 am 10:35 Sunny 32 undefined 32 undefined 100 100 E 10 17 30.45 1031 7 11 N/A
10:56 am 10:56 Sunny 32 undefined 32 undefined 100 100 E 10 17 30.46 1031 7 11 N/A
11:15 am 11:15 Sunny 34 1 32 undefined 93 93 E 8 13 30.46 1032 7 11 N/A
11:35 am 11:35 Sunny 34 1 32 undefined 93 93 E 12 19 30.45 1031 7 11 N/A
11:55 am 11:55 Sunny 34 1 30 -1 87 87 E 10 17 30.46 1032 7 11 N/A
11:56 am 11:56 Sunny 34 1 32 undefined 93 93 E 12 19 30.45 1031 7 11 N/A
12:15 pm 12:15 Sunny 36 2 32 undefined 87 87 E 10 17 30.44 1031 7 11 N/A
12:35 pm 12:35 Sunny 36 2 32 undefined 87 87 E 10 17 30.43 1030 7 11 N/A
12:55 pm 12:55 Sunny 36 2 32 undefined 87 87 E 10 17 30.42 1030 7 11 N/A
12:56 pm 12:56 Sunny 36 2 32 undefined 87 87 E 9 15 30.42 1030 7 11 N/A
1:15 pm 13:15 Sunny 36 2 32 undefined 87 87 E 12 19 30.41 1030 7 11 N/A
1:35 pm 13:35 Sunny 37 3 32 undefined 81 81 E 12 19 30.39 1029 7 11 N/A
1:55 pm 13:55 Sunny 39 4 34 1 81 81 E 8 13 30.38 1029 7 11 N/A
1:56 pm 13:56 Sunny 39 4 34 1 81 81 E 7 11 30.38 1029 7 11 N/A
2:15 pm 14:15 Sunny 37 3 34 1 87 87 ENE 9 15 30.38 1029 10 16 N/A
2:35 pm 14:35 Sunny 37 3 32 undefined 81 81 ENE 8 13 30.37 1029 10 16 N/A
2:36 pm 14:36 Sunny 37 3 32 undefined 81 81 ENE 8 13 30.37 1029 10 16 N/A
2:55 pm 14:55 Sunny 39 4 34 1 81 81 ENE 7 11 30.38 1029 10 16 N/A
2:56 pm 14:56 Sunny 39 4 34 1 81 81 NE 7 11 30.38 1029 10 16 N/A
3:15 pm 15:15 Sunny 39 4 34 1 81 81 ENE 7 11 30.37 1028 10 16 N/A
3:35 pm 15:35 Sunny 39 4 32 undefined 75 75 E 8 13 30.36 1028 10 16 N/A
3:36 pm 15:36 Sunny 39 4 32 undefined 75 75 E 8 13 30.36 1028 10 16 N/A
3:55 pm 15:55 Sunny 39 4 32 undefined 75 75 ENE 10 17 30.36 1028 10 16 N/A
3:56 pm 15:56 Sunny 39 4 32 undefined 75 75 ENE 10 17 30.36 1028 10 16 N/A
4:15 pm 16:15 Sunny 39 4 34 1 81 81 ENE 8 13 30.35 1028 10 16 N/A
4:35 pm 16:35 Sunny 37 3 34 1 87 87 ENE 9 15 30.36 1028 10 16 N/A
4:36 pm 16:36 Sunny 37 3 34 1 87 87 E 9 15 30.36 1028 10 16 N/A
4:55 pm 16:55 Sunny 37 3 34 1 87 87 ENE 7 11 30.36 1028 10 16 N/A
5:15 pm 17:15 Sunny 37 3 34 1 87 87 E 5 7 30.37 1029 10 16 N/A
5:16 pm 17:16 Sunny 37 3 34 1 87 87 E 6 9 30.37 1029 10 16 N/A
5:35 pm 17:35 Sunny 37 3 34 1 87 87 E 7 11 30.37 1029 10 16 N/A
5:55 pm 17:55 Mostly Cloudy 36 2 34 1 93 93 E 5 7 30.37 1028 10 16 N/A
6:15 pm 18:15 Cloudy 36 2 34 1 93 93 ENE 7 11 30.37 1028 7 11 N/A
6:16 pm 18:16 Cloudy 36 2 34 1 93 93 ENE 7 11 30.37 1028 7 11 N/A
6:35 pm 18:35 Cloudy 36 2 34 1 93 93 ENE 6 9 30.38 1029 10 16 N/A
6:36 pm 18:36 Cloudy 36 2 34 1 93 93 ENE 6 9 30.37 1028 10 16 N/A
6:55 pm 18:55 Cloudy 36 2 34 1 93 93 E 6 9 30.37 1028 10 16 N/A
7:15 pm 19:15 Cloudy 36 2 34 1 93 93 ENE 7 11 30.36 1028 10 16 N/A
7:16 pm 19:16 Cloudy 36 2 34 1 93 93 ENE 7 11 30.36 1028 10 16 N/A
7:35 pm 19:35 Cloudy 36 2 34 1 93 93 ENE 9 15 30.37 1028 7 11 N/A
7:36 pm 19:36 Cloudy 36 2 34 1 93 93 ENE 9 15 30.37 1028 7 11 N/A
7:55 pm 19:55 Cloudy 34 1 34 1 100 100 ENE 9 15 30.36 1028 7 11 N/A
8:15 pm 20:15 Mostly Cloudy 34 1 32 undefined 93 93 E 8 13 30.36 1028 7 11 N/A
8:16 pm 20:16 Mostly Cloudy 34 1 32 undefined 93 93 E 9 15 30.36 1028 7 11 N/A
8:35 pm 20:35 Mostly Cloudy 34 1 32 undefined 93 93 E 10 17 30.33 1027 7 11 N/A
8:36 pm 20:36 Mostly Cloudy 34 1 32 undefined 93 93 E 9 15 30.33 1027 7 11 N/A
8:55 pm 20:55 Mostly Cloudy 34 1 32 undefined 93 93 E 8 13 30.33 1027 7 11 N/A
9:15 pm 21:15 Mostly Cloudy 32 undefined 32 undefined 100 100 E 5 7 30.35 1028 7 11 N/A
9:16 pm 21:16 Mostly Cloudy 32 undefined 32 undefined 100 100 E 5 7 30.35 1028 7 11 N/A
9:35 pm 21:35 Partly Cloudy 34 1 32 undefined 93 93 ENE 5 7 30.34 1027 7 11 N/A
9:55 pm 21:55 Clear 32 undefined 32 undefined 100 100 E 7 11 30.34 1027 7 11 N/A
10:15 pm 22:15 Mostly Cloudy 32 undefined 32 undefined 100 100 ENE 6 9 30.34 1027 7 11 N/A
10:16 pm 22:16 Mostly Cloudy 32 undefined 32 undefined 100 100 ENE 6 9 30.34 1027 7 11 N/A

Powered by AerisWeather